Tracking 19817 objects as of 19-Aug-2019
HD Live streaming from Space Station
objects crossing your sky now

METEOR 2-17 DEB

Track METEOR 2-17 DEB now!
10-day predictions


NORAD ID: 35371
Int'l Code: 1988-005AF
Perigee: 909.2 km
Apogee: 928.5 km
Inclination: 82.5 °
Period: 103.2 minutes
Semi major axis: 7289 km
RCS: 0.0006 m2 (small)
Launch date: January 30, 1988
Source: Commonwealth of Independent States (former USSR) (CIS)
Launch site: PLESETSK MISSILE AND SPACE COMPLEX (PKMTR)

Note: This is SATELLITE DEBRIS
aabbcc
Your satellite tracking list
Your tracking list is empty




NASA's NSSDC Master Catalog

Two Line Element Set (TLE):
1 35371U 88005AF  19226.99171898 +.00000035 +00000-0 +14672-4 0  9994
2 35371 082.5215 111.7507 0013242 184.6432 175.4613 13.94839292311323
Source of the keplerian elements: AFSPC